2022-04-26 00:03:02 r, 19.31m,0000000002Hz,0000291858c,0000000.633s, 008.0C,00002191
2022-04-26 00:13:01 r, 19.51m,0000000002Hz,0000348483c,0000000.756s, 008.0C,00002191
2022-04-26 00:23:02 r, 19.57m,0000000001Hz,0000367794c,0000000.798s, 008.0C,00002191
2022-04-26 00:33:02 r, 19.58m,0000000001Hz,0000373493c,0000000.811s, 008.0C,00002191
2022-04-26 00:43:01 r, 19.71m,0000000002Hz,0000419454c,0000000.910s, 008.0C,00002191
2022-04-26 00:53:01 r, 19.78m,0000000001Hz,0000450109c,0000000.977s, 008.0C,00002191
2022-04-26 01:03:03 r, 19.77m,0000000001Hz,0000443604c,0000000.963s, 007.7C,00002191
2022-04-26 01:13:01 r, 19.57m,0000000002Hz,0000368598c,0000000.800s, 007.7C,00002191
2022-04-26 01:23:02 r, 19.63m,0000000002Hz,0000387614c,0000000.841s, 007.7C,00002191
2022-04-26 01:33:02 r, 19.86m,0000000001Hz,0000480960c,0000001.044s, 007.7C,00002191
2022-04-26 01:43:01 r, 19.48m,0000000001Hz,0000341617c,0000000.741s, 007.7C,00002191
2022-04-26 01:53:03 r, 19.57m,0000000001Hz,0000369649c,0000000.802s, 007.7C,00002191
2022-04-26 02:03:02 r, 19.77m,0000000001Hz,0000445349c,0000000.966s, 007.7C,00002191
2022-04-26 02:13:01 r, 19.75m,0000000001Hz,0000434857c,0000000.944s, 007.7C,00002191
2022-04-26 02:23:03 r, 20.07m,0000000000Hz,0000579879c,0000001.258s, 007.7C,00002191
2022-04-26 02:33:02 r, 20.31m,0000000000Hz,0000724665c,0000001.573s, 007.4C,00002191
2022-04-26 02:43:01 r, 20.36m,0000000001Hz,0000756545c,0000001.642s, 007.4C,00002191
2022-04-26 02:53:02 r, 20.07m,0000000001Hz,0000583814c,0000001.267s, 007.0C,00002191
2022-04-26 03:03:02 r, 19.97m,0000000001Hz,0000531733c,0000001.154s, 007.0C,00002191
2022-04-26 03:13:01 r, 19.90m,0000000001Hz,0000499119c,0000001.083s, 007.0C,00002191
2022-04-26 03:23:01 r, 20.32m,0000000001Hz,0000726712c,0000001.577s, 007.0C,00002191
2022-04-26 03:33:03 r, 20.07m,0000000001Hz,0000580921c,0000001.261s, 007.0C,00002191
2022-04-26 03:43:01 r, 20.37m,0000000000Hz,0000762008c,0000001.654s, 006.7C,00002191
2022-04-26 03:53:01 r, 20.46m,0000000000Hz,0000830180c,0000001.802s, 006.7C,00002191
2022-04-26 04:03:04 r, 20.37m,0000000001Hz,0000763349c,0000001.657s, 006.7C,00002191
2022-04-26 04:13:01 r, 20.38m,0000000000Hz,0000771857c,0000001.675s, 006.4C,00002191
2022-04-26 04:23:01 r, 20.42m,0000000001Hz,0000802391c,0000001.741s, 006.4C,00002191
2022-04-26 04:33:02 r, 20.38m,0000000001Hz,0000770766c,0000001.673s, 006.4C,00002191
2022-04-26 04:43:02 r, 20.18m,0000000001Hz,0000645911c,0000001.402s, 006.4C,00002191
2022-04-26 04:53:01 r, 19.73m,0000000001Hz,0000428188c,0000000.929s, 006.4C,00002191
2022-04-26 05:03:02 r, 18.92m,0000000003Hz,0000203633c,0000000.442s, 006.1C,00002191
2022-04-26 05:13:02 r, 17.77m,0000000006Hz,0000070620c,0000000.153s, 006.1C,00002191
2022-04-26 05:23:01 r, 16.33m,0000000024Hz,0000018792c,0000000.041s, 006.1C,00002191
2022-04-26 05:33:02 r, 14.59m,0000000121Hz,0000003763c,0000000.008s, 005.8C,00002191
2022-04-26 05:43:03 r, 12.75m,0000000673Hz,0000000000c,0000000.000s, 006.1C,00002191
2022-04-26 05:53:01 r, 10.90m,0000003681Hz,0000000000c,0000000.000s, 006.1C,00002191
2022-04-26 06:03:03 r, 09.26m,0000016719Hz,0000000000c,0000000.000s, 006.1C,00002191
2022-04-26 06:13:02 r, 08.03m,0000051818Hz,0000000000c,0000000.000s, 006.1C,00002191
2022-04-26 06:23:01 r, 07.17m,0000114240Hz,0000000000c,0000000.000s, 006.1C,00002191
2022-04-26 06:33:03 r, 06.54m,0000204100Hz,0000000000c,0000000.000s, 006.1C,00002191
2022-04-26 06:43:02 r, 06.04m,0000327427Hz,0000000000c,0000000.000s, 006.1C,00002191
2022-04-26 06:53:01 r, 00.00m,0000563412Hz,0000000000c,0000000.000s, 006.4C,00002191
2022-04-26 07:03:02 r, 00.00m,0000598566Hz,0000000000c,0000000.000s, 007.7C,00002191
2022-04-26 07:13:02 r, 00.00m,0000598419Hz,0000000000c,0000000.000s, 009.0C,00002191
2022-04-26 07:23:01 r, 00.00m,0000598428Hz,0000000000c,0000000.000s, 009.9C,00002191
2022-04-26 07:33:02 r, 00.00m,0000598377Hz,0000000000c,0000000.000s, 010.9C,00002191
2022-04-26 07:43:02 r, 00.00m,0000598279Hz,0000000000c,0000000.000s, 011.6C,00002191
2022-04-26 07:53:01 r, 00.00m,0000598206Hz,0000000000c,0000000.000s, 012.5C,00002191
2022-04-26 08:03:02 r, 00.00m,0000598198Hz,0000000000c,0000000.000s, 013.2C,00002191
2022-04-26 08:13:03 r, 00.00m,0000598041Hz,0000000000c,0000000.000s, 014.1C,00002191
2022-04-26 08:23:01 r, 00.00m,0000597967Hz,0000000000c,0000000.000s, 015.1C,00002191
2022-04-26 08:33:03 r, 00.00m,0000597884Hz,0000000000c,0000000.000s, 015.7C,00002191
2022-04-26 08:43:02 r, 00.00m,0000597758Hz,0000000000c,0000000.000s, 016.7C,00002191
2022-04-26 08:53:01 r, 00.00m,0000597627Hz,0000000000c,0000000.000s, 017.4C,00002191
2022-04-26 09:03:02 r, 00.00m,0000597502Hz,0000000000c,0000000.000s, 018.6C,00002191
2022-04-26 09:13:02 r, 00.00m,0000597356Hz,0000000000c,0000000.000s, 019.6C,00002191
2022-04-26 09:23:01 r, 00.00m,0000597151Hz,0000000000c,0000000.000s, 021.2C,00002191
2022-04-26 09:33:02 r, 00.00m,0000597116Hz,0000000000c,0000000.000s, 021.9C,00002191
2022-04-26 09:43:02 r, 00.00m,0000596986Hz,0000000000c,0000000.000s, 022.8C,00002191
2022-04-26 09:53:01 r, 00.00m,0000596894Hz,0000000000c,0000000.000s, 023.5C,00002191
2022-04-26 10:03:02 r, 00.00m,0000596787Hz,0000000000c,0000000.000s, 024.1C,00002191
2022-04-26 10:13:03 r, 00.00m,0000596627Hz,0000000000c,0000000.000s, 024.4C,00002191
2022-04-26 10:23:01 r, 00.00m,0000596602Hz,0000000000c,0000000.000s, 025.4C,00002191
2022-04-26 10:33:03 r, 00.00m,0000596566Hz,0000000000c,0000000.000s, 025.7C,00002191
2022-04-26 10:43:02 r, 00.00m,0000596429Hz,0000000000c,0000000.000s, 025.7C,00002191
2022-04-26 10:53:01 r, 00.00m,0000596445Hz,0000000000c,0000000.000s, 026.1C,00002191
2022-04-26 11:03:03 r, 00.00m,0000596337Hz,0000000000c,0000000.000s, 026.1C,00002191
2022-04-26 11:13:02 r, 00.00m,0000596260Hz,0000000000c,0000000.000s, 026.4C,00002191
2022-04-26 11:23:01 r, 00.00m,0000596251Hz,0000000000c,0000000.000s, 026.7C,00002191
2022-04-26 11:33:02 r, 00.00m,0000596162Hz,0000000000c,0000000.000s, 027.3C,00002191
2022-04-26 11:43:02 r, 00.00m,0000596147Hz,0000000000c,0000000.000s, 027.3C,00002191
2022-04-26 11:53:01 r, 00.00m,0000596296Hz,0000000000c,0000000.000s, 026.4C,00002191
2022-04-26 12:03:01 r, 00.00m,0000596142Hz,0000000000c,0000000.000s, 027.0C,00002191
2022-04-26 12:13:03 r, 00.00m,0000596119Hz,0000000000c,0000000.000s, 027.7C,00002191
2022-04-26 12:23:01 r, 00.00m,0000596080Hz,0000000000c,0000000.000s, 028.0C,00002191
2022-04-26 12:33:01 r, 00.00m,0000596123Hz,0000000000c,0000000.000s, 028.0C,00002191
2022-04-26 12:43:03 r, 00.00m,0000595972Hz,0000000000c,0000000.000s, 028.6C,00002191
2022-04-26 12:53:01 r, 00.00m,0000596198Hz,0000000000c,0000000.000s, 027.7C,00002191
2022-04-26 13:03:03 r, 00.00m,0000596110Hz,0000000000c,0000000.000s, 027.7C,00002191
2022-04-26 13:13:02 r, 00.00m,0000596026Hz,0000000000c,0000000.000s, 028.6C,00002191
2022-04-26 13:23:01 r, 00.00m,0000595752Hz,0000000000c,0000000.000s, 029.9C,00002191
2022-04-26 13:33:03 r, 00.00m,0000595771Hz,0000000000c,0000000.000s, 030.6C,00002191
2022-04-26 13:43:02 r, 00.00m,0000595583Hz,0000000000c,0000000.000s, 030.9C,00002191
2022-04-26 13:53:01 r, 00.00m,0000595703Hz,0000000000c,0000000.000s, 030.9C,00002191
2022-04-26 14:03:02 r, 00.00m,0000595483Hz,0000000000c,0000000.000s, 031.2C,00002191
2022-04-26 14:13:03 r, 00.00m,0000595453Hz,0000000000c,0000000.000s, 031.5C,00002191
2022-04-26 14:23:01 r, 00.00m,0000595409Hz,0000000000c,0000000.000s, 031.9C,00002191
2022-04-26 14:33:01 r, 00.00m,0000595485Hz,0000000000c,0000000.000s, 032.2C,00002191
2022-04-26 14:43:03 r, 00.00m,0000595397Hz,0000000000c,0000000.000s, 031.9C,00002191
2022-04-26 14:53:01 r, 00.00m,0000595473Hz,0000000000c,0000000.000s, 032.2C,00002191
2022-04-26 15:03:01 r, 00.00m,0000595429Hz,0000000000c,0000000.000s, 031.9C,00002191
2022-04-26 15:13:02 r, 00.00m,0000595510Hz,0000000000c,0000000.000s, 031.9C,00002191
2022-04-26 15:23:01 r, 00.00m,0000595530Hz,0000000000c,0000000.000s, 032.2C,00002191
2022-04-26 15:33:03 r, 00.00m,0000595542Hz,0000000000c,0000000.000s, 031.9C,00002191
2022-04-26 15:43:02 r, 00.00m,0000595442Hz,0000000000c,0000000.000s, 031.5C,00002191
2022-04-26 15:53:01 r, 00.00m,0000595535Hz,0000000000c,0000000.000s, 031.9C,00002191
2022-04-26 16:03:02 r, 00.00m,0000595522Hz,0000000000c,0000000.000s, 031.5C,00002191
2022-04-26 16:13:02 r, 00.00m,0000595642Hz,0000000000c,0000000.000s, 031.2C,00002191
2022-04-26 16:23:01 r, 00.00m,0000595553Hz,0000000000c,0000000.000s, 031.2C,00002191
2022-04-26 16:33:01 r, 00.00m,0000595680Hz,0000000000c,0000000.000s, 030.6C,00002191
2022-04-26 16:43:04 r, 00.00m,0000595727Hz,0000000000c,0000000.000s, 030.6C,00002191
2022-04-26 16:53:01 r, 00.00m,0000595715Hz,0000000000c,0000000.000s, 030.2C,00002191
2022-04-26 17:03:01 r, 00.00m,0000595851Hz,0000000000c,0000000.000s, 029.9C,00002191
2022-04-26 17:13:03 r, 00.00m,0000595893Hz,0000000000c,0000000.000s, 029.3C,00002191
2022-04-26 17:23:01 r, 00.00m,0000595926Hz,0000000000c,0000000.000s, 029.0C,00002191
2022-04-26 17:33:03 r, 00.00m,0000596061Hz,0000000000c,0000000.000s, 028.6C,00002191
2022-04-26 17:43:02 r, 00.00m,0000596255Hz,0000000000c,0000000.000s, 028.3C,00002191
2022-04-26 17:53:01 r, 00.00m,0000596262Hz,0000000000c,0000000.000s, 027.3C,00002191
2022-04-26 18:03:03 r, 00.00m,0000596356Hz,0000000000c,0000000.000s, 026.7C,00002191
2022-04-26 18:13:02 r, 00.00m,0000596411Hz,0000000000c,0000000.000s, 026.1C,00002191
2022-04-26 18:23:01 r, 00.00m,0000596622Hz,0000000000c,0000000.000s, 025.1C,00002191
2022-04-26 18:33:02 r, 00.00m,0000596664Hz,0000000000c,0000000.000s, 024.8C,00002191
2022-04-26 18:43:04 r, 00.00m,0000596738Hz,0000000000c,0000000.000s, 023.8C,00002191
2022-04-26 18:53:01 r, 00.00m,0000596788Hz,0000000000c,0000000.000s, 023.2C,00002191
2022-04-26 19:03:01 r, 00.00m,0000596935Hz,0000000000c,0000000.000s, 022.8C,00002191
2022-04-26 19:13:03 r, 00.00m,0000596996Hz,0000000000c,0000000.000s, 021.9C,00002191
2022-04-26 19:23:01 r, 00.00m,0000597224Hz,0000000000c,0000000.000s, 020.9C,00002191
2022-04-26 19:33:04 r, 00.00m,0000559335Hz,0000000000c,0000000.000s, 019.9C,00002191
2022-04-26 19:43:02 r, 00.00m,0000485682Hz,0000000000c,0000000.000s, 019.3C,00002191
2022-04-26 19:53:01 r, 00.00m,0000407607Hz,0000000000c,0000000.000s, 018.6C,00002191
2022-04-26 20:03:01 r, 06.04m,0000324340Hz,0000000000c,0000000.000s, 018.0C,00002191
2022-04-26 20:13:02 r, 06.38m,0000237437Hz,0000000000c,0000000.000s, 017.0C,00002191
2022-04-26 20:23:01 r, 06.85m,0000153641Hz,0000000000c,0000000.000s, 016.1C,00002191
2022-04-26 20:33:01 r, 07.53m,0000082772Hz,0000000000c,0000000.000s, 015.1C,00002191
2022-04-26 20:43:03 r, 08.48m,0000034477Hz,0000000000c,0000000.000s, 014.5C,00002191
2022-04-26 20:53:01 r, 09.79m,0000010294Hz,0000000000c,0000000.000s, 013.8C,00002191
2022-04-26 21:03:01 r, 11.50m,0000002132Hz,0000000000c,0000000.000s, 013.5C,00002191
2022-04-26 21:13:04 r, 13.38m,0000000377Hz,0000000000c,0000000.000s, 013.2C,00002191
2022-04-26 21:23:01 r, 15.30m,0000000065Hz,0000007231c,0000000.016s, 013.2C,00002191
2022-04-26 21:33:01 r, 16.98m,0000000013Hz,0000034064c,0000000.074s, 012.8C,00002191
2022-04-26 21:43:04 r, 18.29m,0000000004Hz,0000113248c,0000000.246s, 012.8C,00002191
2022-04-26 21:53:02 r, 19.35m,0000000002Hz,0000299608c,0000000.650s, 012.5C,00002191
2022-04-26 22:03:01 r, 20.10m,0000000000Hz,0000598936c,0000001.300s, 012.5C,00002191
2022-04-26 22:13:02 r, 20.53m,0000000001Hz,0000877154c,0000001.904s, 012.5C,00002191
2022-04-26 22:23:03 r, 20.71m,0000000001Hz,0001034601c,0000002.245s, 012.2C,00002191
2022-04-26 22:33:01 r, 20.77m,0000000001Hz,0001104369c,0000002.397s, 012.2C,00002191
2022-04-26 22:43:03 r, 20.80m,0000000001Hz,0001132508c,0000002.458s, 012.2C,00002191
2022-04-26 22:53:02 r, 20.82m,0000000000Hz,0001149120c,0000002.494s, 011.9C,00002191
2022-04-26 23:03:01 r, 20.83m,0000000000Hz,0001157840c,0000002.513s, 011.9C,00002191
2022-04-26 23:13:02 r, 20.83m,0000000000Hz,0001155322c,0000002.507s, 011.9C,00002191
2022-04-26 23:23:04 r, 20.83m,0000000000Hz,0001156093c,0000002.509s, 011.9C,00002191
2022-04-26 23:33:01 r, 20.83m,0000000000Hz,0001157334c,0000002.512s, 011.9C,00002191
2022-04-26 23:43:04 r, 20.83m,0000000000Hz,0001157101c,0000002.511s, 011.9C,00002191
2022-04-26 23:53:02 r, 20.83m,0000000000Hz,0001159584c,0000002.516s, 011.6C,00002191
